Location: Napa Soda Springs
(38.3907°N, 122.2794°W)
Time: 08:19:33
(UTC+00:00)

SL-14 R/B - Pass Details

Date: 29 October 2020
Orbit: 517 x 555 km, 82.4° (Epoch: 02 December)

Event Time Altitude Azimuth Distance (km) Brightness Sun altitude
Exits shadow 13:02:25 35° 314° (NW) 903 4.0 -18.3°
Drops below altitude 10° 13:05:22 10° 352° (N) 1,835 5.9 -17.7°
Sets 13:07:39 0° 360° (N) 2,738 6.8 -17.2°
